sat.trackr.live / text

‹ back to catalog

2023-091C

NORAD 57168 · 2023-091C

PAYLOAD ACTIVE UNKNOWN

§ Identity

Operator
Country
CIS
Launch date
2023-06-27
Launch site
VOSTO
Launch vehicle
Mass (kg)
RCS (m²)

External: N2YO · Heavens-Above · Gunter

§ Orbital elements

Epoch: 2026-05-25T03:39:33.151392Z

Period
94.36 min
Inclination
97.5038°
Eccentricity
0.0011583
Mean motion
15.26097359 rev/d
Perigee alt
479.5 km
Apogee alt
495.4 km
Semi-major
6,865.6 km
B*
3.2854e-4
RAAN
207.3758°
Arg perigee
179.8777°
Mean anomaly
180.2466°
Rev number
16,074

§ Raw data

2023-091C1 57168U 23091C   26145.15246703  .00008415  00000+0  32854-3 0  99902 57168  97.5038 207.3758 0011583 179.8777 180.2466 15.26097359160749

JSON: /api/v1/satellites/57168 · /tle

For live sub-satellite position, see the globe view (requires WebGL).

§ Visibility from observer

Set your observer location to see the next 7 days of passes ≥ 10°. The values pass through the URL so the page stays shareable.

No JS? Fill the form by hand. The geolocation button needs JavaScript.

§ Radio — SatNOGS DB

ModeDescriptionDownlinkUplink
LoRa LoRa: BW 125kHz, SF 7 436.000 MHz
DOKA Mode U - DOKA 9k6 (inactive) 435.640 MHz
DOKA Mode U - DOKA 9k6 (inactive) 435.742 MHz
FSK Mode U - Transmitter (inactive) 436.675 MHz

4 transmitters · refreshed weekly from db.satnogs.org